• In Uzbekistan
  • List of Countries
  • For 7 days
  • Water Temperature
  • Satellite Maps
  • Weather Map
  • Weather Widgets
  • user-avatar
    Login

    Hourly Weather Kalkan

    Today, 11 December, Monday

    Time Temperature Precipitation Wind Pressure Humidity
    00:00 +13°C° 0 mm 2 mps 765 mmHg 94%
    01:00 +13°C° 0 mm 2 mps 765 mmHg 94%
    02:00 +12°C° 0 mm 2 mps 765 mmHg 94%
    03:00 +12°C° 0 mm 2 mps 766 mmHg 94%
    04:00 +12°C° 0 mm 1 mps 766 mmHg 93%
    05:00 +12°C° 0 mm 1 mps 766 mmHg 93%
    06:00 +12°C° 0.1 mm 2 mps 766 mmHg 93%
    07:00 +13°C° 0.1 mm 2 mps 766 mmHg 92%
    08:00 +14°C° 0.1 mm 2 mps 767 mmHg 91%
    09:00 +15°C° 0.1 mm 2 mps 767 mmHg 87%
    10:00 +17°C° 0.1 mm 2 mps 767 mmHg 83%
    11:00 +18°C° 0.1 mm 3 mps 767 mmHg 78%
    12:00 +18°C° 0 mm 2 mps 767 mmHg 78%
    13:00 +18°C° 0 mm 2 mps 767 mmHg 78%
    14:00 +18°C° 0 mm 2 mps 766 mmHg 77%
    15:00 +18°C° 0 mm 1 mps 766 mmHg 83%
    16:00 +16°C° 0 mm 1 mps 766 mmHg 89%
    17:00 +15°C° 0 mm 1 mps 766 mmHg 94%
    18:00 +15°C° 0 mm 1 mps 767 mmHg 94%
    19:00 +15°C° 0 mm 1 mps 767 mmHg 95%
    20:00 +15°C° 0 mm 1 mps 767 mmHg 95%
    21:00 +15°C° 0 mm 1 mps 767 mmHg 94%
    22:00 +14°C° 0 mm 1 mps 767 mmHg 94%
    23:00 +14°C° 0 mm 1 mps 767 mmHg 94%

    Tomorrow, 12 December, Tuesday

    Time Temperature Precipitation Wind Pressure Humidity
    00:00 +14°C° 0 mm 1 mps 767 mmHg 92%
    01:00 +14°C° 0 mm 1 mps 767 mmHg 90%
    02:00 +14°C° 0 mm 1 mps 766 mmHg 88%
    03:00 +14°C° 0 mm 1 mps 766 mmHg 87%
    04:00 +14°C° 0 mm 1 mps 766 mmHg 86%
    05:00 +14°C° 0 mm 1 mps 766 mmHg 85%
    06:00 +14°C° 0 mm 1 mps 766 mmHg 83%
    07:00 +15°C° 0 mm 1 mps 766 mmHg 80%
    08:00 +15°C° 0 mm 1 mps 766 mmHg 77%
    09:00 +18°C° 0 mm 1 mps 766 mmHg 70%
    10:00 +20°C° 0 mm 1 mps 766 mmHg 62%
    11:00 +21°C° 0 mm 1 mps 766 mmHg 54%
    12:00 +21°C° 0 mm 2 mps 765 mmHg 55%
    13:00 +21°C° 0 mm 2 mps 765 mmHg 55%
    14:00 +21°C° 0 mm 3 mps 765 mmHg 55%
    15:00 +19°C° 0 mm 3 mps 765 mmHg 63%
    16:00 +18°C° 0 mm 3 mps 764 mmHg 71%
    17:00 +16°C° 0 mm 3 mps 764 mmHg 80%
    18:00 +16°C° 0 mm 3 mps 765 mmHg 77%
    19:00 +16°C° 0 mm 3 mps 765 mmHg 75%
    20:00 +16°C° 0 mm 3 mps 765 mmHg 72%
    21:00 +14°C° 0 mm 3 mps 765 mmHg 69%
    22:00 +14°C° 0 mm 3 mps 765 mmHg 65%
    23:00 +14°C° 0 mm 3 mps 765 mmHg 62%

    Day after tomorrow, 13 December, Wednesday

    Time Temperature Precipitation Wind Pressure Humidity
    00:00 +14°C° 0 mm 3 mps 765 mmHg 59%
    01:00 +14°C° 0 mm 3 mps 765 mmHg 57%
    02:00 +14°C° 0 mm 3 mps 764 mmHg 55%
    03:00 +14°C° 0 mm 4 mps 764 mmHg 53%
    04:00 +14°C° 0 mm 4 mps 764 mmHg 51%
    05:00 +14°C° 0 mm 4 mps 764 mmHg 50%
    06:00 +14°C° 0 mm 4 mps 764 mmHg 50%
    07:00 +15°C° 0 mm 4 mps 764 mmHg 49%
    08:00 +15°C° 0 mm 4 mps 764 mmHg 49%
    09:00 +18°C° 0 mm 4 mps 764 mmHg 45%
    10:00 +20°C° 0 mm 4 mps 764 mmHg 41%
    11:00 +23°C° 0 mm 4 mps 764 mmHg 37%
    12:00 +23°C° 0 mm 4 mps 763 mmHg 39%
    13:00 +23°C° 0 mm 5 mps 763 mmHg 41%
    14:00 +23°C° 0 mm 5 mps 762 mmHg 42%
    15:00 +21°C° 0 mm 5 mps 762 mmHg 51%
    16:00 +19°C° 0 mm 5 mps 762 mmHg 59%
    17:00 +16°C° 0 mm 5 mps 762 mmHg 68%
    18:00 +16°C° 0 mm 5 mps 762 mmHg 66%
    19:00 +15°C° 0 mm 5 mps 762 mmHg 64%
    20:00 +15°C° 0 mm 5 mps 763 mmHg 62%
    21:00 +15°C° 0 mm 5 mps 763 mmHg 61%
    22:00 +14°C° 0 mm 4 mps 763 mmHg 61%
    23:00 +14°C° 0 mm 4 mps 763 mmHg 61%

    14 December, Thursday

    Time Temperature Precipitation Wind Pressure Humidity
    00:00 +14°C° 0 mm 4 mps 762 mmHg 62%
    01:00 +13°C° 0 mm 4 mps 762 mmHg 63%
    02:00 +13°C° 0 mm 4 mps 762 mmHg 64%
    03:00 +13°C° 0 mm 4 mps 762 mmHg 62%
    04:00 +13°C° 0 mm 4 mps 762 mmHg 60%
    05:00 +13°C° 0 mm 4 mps 762 mmHg 58%
    06:00 +13°C° 0 mm 4 mps 762 mmHg 55%
    07:00 +14°C° 0 mm 4 mps 762 mmHg 51%
    08:00 +14°C° 0 mm 4 mps 763 mmHg 48%
    09:00 +17°C° 0 mm 4 mps 763 mmHg 42%
    10:00 +19°C° 0 mm 3 mps 763 mmHg 37%
    11:00 +22°C° 0 mm 3 mps 762 mmHg 31%
    12:00 +22°C° 0 mm 4 mps 762 mmHg 33%
    13:00 +22°C° 0 mm 4 mps 762 mmHg 35%
    14:00 +22°C° 0 mm 4 mps 761 mmHg 37%
    15:00 +19°C° 0 mm 4 mps 761 mmHg 48%
    16:00 +17°C° 0 mm 4 mps 761 mmHg 59%
    17:00 +14°C° 0 mm 4 mps 761 mmHg 70%
    18:00 +13°C° 0 mm 4 mps 761 mmHg 67%
    19:00 +13°C° 0 mm 3 mps 762 mmHg 64%
    20:00 +13°C° 0 mm 3 mps 762 mmHg 61%
    21:00 +13°C° 0 mm 3 mps 762 mmHg 58%
    22:00 +12°C° 0 mm 3 mps 762 mmHg 56%
    23:00 +12°C° 0 mm 3 mps 762 mmHg 53%

    15 December, Friday

    Time Temperature Precipitation Wind Pressure Humidity
    00:00 +12°C° 0 mm 3 mps 762 mmHg 50%
    01:00 +12°C° 0 mm 3 mps 762 mmHg 48%
    02:00 +13°C° 0 mm 2 mps 762 mmHg 45%
    03:00 +13°C° 0 mm 2 mps 762 mmHg 43%
    04:00 +13°C° 0 mm 2 mps 761 mmHg 42%
    05:00 +13°C° 0 mm 2 mps 761 mmHg 40%
    06:00 +13°C° 0 mm 2 mps 762 mmHg 39%
    07:00 +14°C° 0 mm 2 mps 762 mmHg 38%
    08:00 +14°C° 0 mm 1 mps 762 mmHg 37%
    09:00 +16°C° 0 mm 1 mps 763 mmHg 37%
    10:00 +19°C° 0 mm 1 mps 763 mmHg 38%
    11:00 +21°C° 0 mm 1 mps 763 mmHg 38%
    12:00 +21°C° 0 mm 1 mps 763 mmHg 41%
    13:00 +20°C° 0 mm 2 mps 762 mmHg 45%
    14:00 +20°C° 0 mm 2 mps 762 mmHg 48%
    15:00 +18°C° 0 mm 2 mps 762 mmHg 57%
    16:00 +16°C° 0 mm 2 mps 762 mmHg 66%
    17:00 +14°C° 0 mm 1 mps 763 mmHg 75%
    18:00 +13°C° 0 mm 1 mps 763 mmHg 76%
    19:00 +13°C° 0 mm 1 mps 763 mmHg 77%
    20:00 +13°C° 0 mm 1 mps 764 mmHg 77%
    21:00 +13°C° 0 mm 1 mps 764 mmHg 78%
    22:00 +13°C° 0 mm 1 mps 764 mmHg 79%
    23:00 +12°C° 0 mm 1 mps 764 mmHg 79%

    16 December, Saturday

    Time Temperature Precipitation Wind Pressure Humidity
    00:00 +12°C° 0 mm 1 mps 764 mmHg 80%
    01:00 +12°C° 0 mm 1 mps 764 mmHg 81%
    02:00 +12°C° 0 mm 1 mps 764 mmHg 81%
    03:00 +12°C° 0 mm 1 mps 764 mmHg 81%
    04:00 +12°C° 0 mm 1 mps 764 mmHg 81%
    05:00 +12°C° 0 mm 1 mps 763 mmHg 81%
    06:00 +12°C° 0 mm 2 mps 764 mmHg 80%
    07:00 +13°C° 0 mm 2 mps 764 mmHg 78%
    08:00 +12°C° 0 mm 3 mps 764 mmHg 77%
    09:00 +14°C° 0 mm 3 mps 764 mmHg 69%
    10:00 +17°C° 0 mm 3 mps 764 mmHg 62%
    11:00 +19°C° 0 mm 3 mps 764 mmHg 54%
    12:00 +19°C° 0 mm 4 mps 763 mmHg 56%
    13:00 +19°C° 0 mm 4 mps 763 mmHg 58%
    14:00 +20°C° 0 mm 4 mps 762 mmHg 60%
    15:00 +18°C° 0 mm 4 mps 762 mmHg 71%
    16:00 +15°C° 0 mm 4 mps 762 mmHg 81%
    17:00 +13°C° 0 mm 4 mps 762 mmHg 92%
    18:00 +13°C° 0 mm 4 mps 763 mmHg 93%
    19:00 +13°C° 0 mm 4 mps 763 mmHg 94%
    20:00 +13°C° 0 mm 4 mps 763 mmHg 94%
    21:00 +12°C° 0 mm 4 mps 763 mmHg 95%
    22:00 +12°C° 0 mm 4 mps 764 mmHg 95%
    23:00 +12°C° 0 mm 3 mps 764 mmHg 95%
    Show more